Flag for U.S.A. Weather past 2 weeks in Cape Coral, Florida, U.S.A.

Now
76 °F

Clear.


Feels Like: 76 °F
Forecast: 71 / 83 °F
Wind: 3 mph from Southeast

Location: Page Field

Current Time: Oct 21, 2014 at 9:42:09 PM

Latest Report: Oct 21, 2014 at 8:53 PM


Visibility: 10 mi

Pressure: 29.94 "Hg

Humidity: 88%

Dew point: 72 °F

Location of Cape CoralLocation

Historic Weather in Cape Coral — Graph

°F

Cape Coral temperature yesterday

Maximum temperature yesterday: 87 °F (at 2:53 PM)
Minimum temperature yesterday: 67 °F (at 4:53 AM)
Average temperature yesterday: 77 °F

Past Weeks' High & Low Weather Summary

 TemperatureHumidityPressure
High91 °F (Oct 11, 3:53 PM)97% (Oct 8, 3:53 AM)30.12 "Hg (Oct 8, 3:53 AM)
Low62 °F (Oct 17, 7:53 AM)34% (Oct 9, 2:53 PM)29.90 "Hg (Oct 16, 5:53 PM)
Average77 °F76%29.99 "Hg
* Reported Oct 6 7:53 PM — Oct 21 7:53 PM, Cape Coral, Weather by CustomWeather, © 2014

Note: Actual official high and low records may vary slightly from our data, if they occured in-between our weather recording intervals... More about our weather records

Advertising

Cape Coral weather history for previous 24 hours

 ConditionsComfort  
Time TempWeatherWind HumidityBarometerVisibility
7:53 PM
Oct 21
77 °FPassing clouds.5 mph82%29.93 "Hg10 mi
6:53 PM78 °FScattered clouds.3 mph76%29.93 "Hg10 mi
5:53 PM79 °FSunny.3 mph72%29.90 "Hg10 mi
4:53 PM80 °FSunny.7 mph69%29.90 "Hg10 mi
4:00 PM79 °FBroken clouds.9 mph77%29.90 "Hg10 mi
2:53 PM80 °FSunny.13 mph74%29.92 "Hg10 mi
1:53 PM80 °FSunny.10 mph74%29.94 "Hg10 mi
12:53 PM82 °FPartly sunny.12 mph72%29.95 "Hg10 mi
11:53 AM82 °FSunny.8 mph72%29.96 "Hg10 mi
10:53 AM80 °FSunny.5 mph76%29.97 "Hg10 mi
9:53 AM76 °FScattered clouds.3 mph88%29.96 "Hg10 mi
8:53 AM75 °FScattered clouds.No wind88%29.95 "Hg10 mi
7:53 AM73 °FPassing clouds.No wind94%29.93 "Hg10 mi
6:53 AM73 °FClear.3 mph94%29.92 "Hg10 mi
5:53 AM74 °FPartly cloudy.3 mph91%29.91 "Hg10 mi
4:53 AM74 °FPartly cloudy.No wind91%29.92 "Hg10 mi
3:53 AM74 °FClear.3 mph88%29.91 "Hg10 mi
2:53 AM75 °FClear.No wind85%29.92 "Hg10 mi
1:53 AM75 °FClear.3 mph85%29.94 "Hg10 mi
12:53 AM75 °FClear.3 mph85%29.95 "Hg10 mi
11:53 PM
Oct 20
77 °FClear.5 mph79%29.98 "Hg10 mi
10:53 PM78 °FClear.6 mph74%29.98 "Hg10 mi
9:53 PM79 °FClear.3 mph69%29.96 "Hg10 mi
Weather by CustomWeather, © 2014

See weather overviewHow to use our weather pages